SL-16 DEB, 22403

Orbit data source: Space-Track

SL-16 DEB, 22403 is space debris in LEO originally from a launch on Fri, 25 Dec 1992 UTC launched from the Tyuratam Missile And Space Complex (TTMTR). Debris objects in space refer to the collection of defunct objects orbiting the Earth. Examples of debris include non-operational satellites, rocket bodies, and fragments generated from explosions, collisions, or faulty payload assembly.

Loading next visibility...
Identifier
22403, 1992-093CU
Orbit
LEO
Country
Flag of CISCIS
Related business
Manufacturer
Unknown
Mission
Spacecraft
Bus & Motor
Unknown
Mass
Unknown
Launch date (UTC)
1992-12-25 (33 years ago)
Launch vehicle
Unknown
Launch site
Tyuratam Missile And Space Complex (TTMTR)
Object type
Payload
Rocket body
Debris
Shape & HBR
Unknown shape, 0.1 m
Radar Cross Section
Small (<0.1 m²)

Expand to show TLE details & history
Last TLE update: 17 hours ago

TLE from 17 hours ago
0 SL-16 DEB
1 22403U 92093CU  25349.77845291  .00000600  00000-0  37797-3 0  9992
2 22403  70.8910 232.1643 0079546  29.4714  41.9969 14.06768248683648
Epoch: 2025-12-15T18:40Z
TLE epoch observation values (Epoch: 2025-12-15T18:40:58.331Z)
Latitude
64.14131°
Longitude
-87.4323°
Altitude
838.302 km
Speed
7.462 km/s
True Right ascension
18h 29m 55s
True Declination
64° 00' 27"
Sunlit
Object was in daylight at epoch
Visualization orbit readout
Latitude
Unknown
Longitude
Unknown
Altitude
Unknown
Speed
Unknown
Apparent Right ascension
Unknown
Apparent Declination
Unknown
Sunlit
N/A
Visualization observer readout
Local Sidereal Time
10:20:44
Azimuth
Unknown
Elevation
Unknown
Doppler factor
Unknown
Orbital elements
Apogee altitude
926.039 km
Perigee altitude
810.752 km
Semi-major axis
7,246.532 km
Eccentricity
0.00795
Inclination
70.891°
RAAN
232.1643°
Arg. of periapsis
29.4714°
True anomaly
42.61132°
Mean anomaly
41.9969°
Eccentric anomaly
42.30366°
Mean motion
3.51842 °/min
Orbital period
102.32 mins
BSTAR
0.00037797
Loading maneuver chart data...
Computing Atmospheric mass density...
Loading historical data...
Loading historical data...
Loading historical data...
Loading historical data...
Loading historical data...
Loading historical data...
Loading historical data...

Documentation

Showing up to 5 results
|